• In Belgium
  • List of Countries
  • For 7 days
  • Water Temperature
  • Satellite Maps
  • Weather Map
  • Weather Widgets
  • user-avatar
    Login

    Hourly Weather Fleurus

    Today, 21 January, Sunday

    Time Temperature Precipitation Wind Pressure Humidity
    00:00 0°C° 0 mm 3 mps 740 mmHg 96%
    01:00 0°C° 0 mm 3 mps 741 mmHg 96%
    02:00 0°C° 0 mm 3 mps 742 mmHg 96%
    03:00 0°C° 0 mm 3 mps 743 mmHg 95%
    04:00 +1°C° 0 mm 2 mps 744 mmHg 95%
    05:00 +1°C° 0 mm 2 mps 744 mmHg 94%
    06:00 +1°C° 0 mm 2 mps 745 mmHg 93%
    07:00 +1°C° 0 mm 2 mps 746 mmHg 92%
    08:00 +1°C° 0 mm 2 mps 747 mmHg 91%
    09:00 +2°C° 0 mm 2 mps 747 mmHg 90%
    10:00 +2°C° 0 mm 2 mps 747 mmHg 88%
    11:00 +3°C° 0 mm 2 mps 747 mmHg 86%
    12:00 +4°C° 0 mm 2 mps 748 mmHg 84%
    13:00 +4°C° 0.1 mm 2 mps 747 mmHg 85%
    14:00 +4°C° 0.1 mm 2 mps 747 mmHg 86%
    15:00 +2°C° 0.1 mm 3 mps 747 mmHg 88%
    16:00 +2°C° 0.8 mm 3 mps 746 mmHg 88%
    17:00 +1°C° 0.8 mm 4 mps 746 mmHg 88%
    18:00 +1°C° 0.8 mm 5 mps 745 mmHg 88%
    19:00 +1°C° 1.3 mm 5 mps 744 mmHg 89%
    20:00 +1°C° 1.3 mm 6 mps 743 mmHg 89%
    21:00 +1°C° 1.3 mm 6 mps 743 mmHg 90%
    22:00 +2°C° 1.2 mm 6 mps 742 mmHg 92%
    23:00 +3°C° 1.2 mm 6 mps 741 mmHg 94%

    Tomorrow, 22 January, Monday

    Time Temperature Precipitation Wind Pressure Humidity
    00:00 +3°C° 1.2 mm 5 mps 741 mmHg 95%
    01:00 +6°C° 0.1 mm 5 mps 741 mmHg 96%
    02:00 +7°C° 0.1 mm 5 mps 741 mmHg 96%
    03:00 +8°C° 0.1 mm 5 mps 741 mmHg 96%
    04:00 +8°C° 0.2 mm 5 mps 741 mmHg 96%
    05:00 +8°C° 0.2 mm 5 mps 741 mmHg 95%
    06:00 +8°C° 0.2 mm 5 mps 742 mmHg 94%
    07:00 +7°C° 0.1 mm 5 mps 742 mmHg 94%
    08:00 +7°C° 0.1 mm 4 mps 743 mmHg 94%
    09:00 +7°C° 0.1 mm 4 mps 744 mmHg 94%
    10:00 +7°C° 0.1 mm 4 mps 744 mmHg 91%
    11:00 +7°C° 0.1 mm 4 mps 744 mmHg 89%
    12:00 +6°C° 0.1 mm 4 mps 745 mmHg 86%
    13:00 +6°C° 0 mm 4 mps 745 mmHg 85%
    14:00 +6°C° 0 mm 4 mps 746 mmHg 84%
    15:00 +6°C° 0 mm 4 mps 746 mmHg 83%
    16:00 +5°C° 0 mm 3 mps 747 mmHg 86%
    17:00 +4°C° 0 mm 3 mps 748 mmHg 89%
    18:00 +4°C° 0 mm 2 mps 748 mmHg 92%
    19:00 +4°C° 0 mm 2 mps 749 mmHg 93%
    20:00 +3°C° 0 mm 2 mps 750 mmHg 93%
    21:00 +3°C° 0 mm 2 mps 750 mmHg 94%
    22:00 +3°C° 0 mm 2 mps 751 mmHg 94%
    23:00 +3°C° 0 mm 2 mps 751 mmHg 95%

    Day after tomorrow, 23 January, Tuesday

    Time Temperature Precipitation Wind Pressure Humidity
    00:00 +2°C° 0 mm 2 mps 751 mmHg 95%
    01:00 +2°C° 0 mm 2 mps 751 mmHg 95%
    02:00 +2°C° 0 mm 2 mps 752 mmHg 95%
    03:00 +2°C° 0 mm 2 mps 752 mmHg 95%
    04:00 +1°C° 0 mm 3 mps 752 mmHg 95%
    05:00 +1°C° 0 mm 3 mps 752 mmHg 95%
    06:00 +2°C° 0 mm 3 mps 752 mmHg 95%
    07:00 +2°C° 0 mm 3 mps 752 mmHg 94%
    08:00 +3°C° 0 mm 4 mps 752 mmHg 93%
    09:00 +4°C° 0 mm 4 mps 752 mmHg 92%
    10:00 +5°C° 0 mm 5 mps 752 mmHg 90%
    11:00 +6°C° 0 mm 5 mps 752 mmHg 88%
    12:00 +7°C° 0 mm 5 mps 751 mmHg 87%
    13:00 +7°C° 0 mm 5 mps 751 mmHg 88%
    14:00 +7°C° 0 mm 5 mps 751 mmHg 89%
    15:00 +7°C° 0 mm 5 mps 750 mmHg 91%
    16:00 +8°C° 0.4 mm 5 mps 750 mmHg 92%
    17:00 +8°C° 0.4 mm 5 mps 750 mmHg 93%
    18:00 +8°C° 0.4 mm 6 mps 750 mmHg 94%
    19:00 +8°C° 0.2 mm 5 mps 750 mmHg 94%
    20:00 +9°C° 0.2 mm 5 mps 750 mmHg 95%
    21:00 +9°C° 0.2 mm 5 mps 750 mmHg 95%
    22:00 +9°C° 0 mm 5 mps 750 mmHg 94%
    23:00 +9°C° 0 mm 5 mps 750 mmHg 94%

    24 January, Wednesday

    Time Temperature Precipitation Wind Pressure Humidity
    00:00 +9°C° 0 mm 6 mps 750 mmHg 93%
    01:00 +9°C° 0 mm 6 mps 750 mmHg 92%
    02:00 +9°C° 0 mm 6 mps 750 mmHg 92%
    03:00 +9°C° 0 mm 6 mps 749 mmHg 91%
    04:00 +9°C° 0 mm 7 mps 749 mmHg 91%
    05:00 +9°C° 0 mm 7 mps 749 mmHg 90%
    06:00 +9°C° 0 mm 7 mps 749 mmHg 90%
    07:00 +9°C° 0 mm 7 mps 749 mmHg 89%
    08:00 +9°C° 0 mm 8 mps 749 mmHg 88%
    09:00 +9°C° 0 mm 8 mps 749 mmHg 87%
    10:00 +9°C° 0 mm 8 mps 748 mmHg 86%
    11:00 +9°C° 0 mm 8 mps 748 mmHg 85%
    12:00 +10°C° 0 mm 8 mps 748 mmHg 84%
    13:00 +10°C° 0.1 mm 8 mps 747 mmHg 84%
    14:00 +10°C° 0.1 mm 8 mps 747 mmHg 84%
    15:00 +9°C° 0.1 mm 8 mps 746 mmHg 84%
    16:00 +10°C° 0.3 mm 8 mps 746 mmHg 84%
    17:00 +10°C° 0.3 mm 8 mps 746 mmHg 84%
    18:00 +10°C° 0.3 mm 8 mps 745 mmHg 83%
    19:00 +10°C° 0.2 mm 8 mps 745 mmHg 84%
    20:00 +10°C° 0.2 mm 8 mps 745 mmHg 85%
    21:00 +10°C° 0.2 mm 8 mps 745 mmHg 86%
    22:00 +10°C° 0.5 mm 8 mps 744 mmHg 87%
    23:00 +10°C° 0.5 mm 8 mps 744 mmHg 87%

    25 January, Thursday

    Time Temperature Precipitation Wind Pressure Humidity
    00:00 +10°C° 0.5 mm 8 mps 744 mmHg 88%
    01:00 +10°C° 1.1 mm 8 mps 744 mmHg 88%
    02:00 +10°C° 1.1 mm 8 mps 743 mmHg 89%
    03:00 +9°C° 1.1 mm 8 mps 743 mmHg 89%
    04:00 +9°C° 0.5 mm 7 mps 743 mmHg 88%
    05:00 +9°C° 0.5 mm 6 mps 744 mmHg 87%
    06:00 +8°C° 0.5 mm 6 mps 744 mmHg 85%
    07:00 +8°C° 0.1 mm 5 mps 744 mmHg 84%
    08:00 +7°C° 0.1 mm 5 mps 745 mmHg 83%
    09:00 +7°C° 0.1 mm 5 mps 745 mmHg 81%
    10:00 +7°C° 0 mm 5 mps 746 mmHg 79%
    11:00 +7°C° 0 mm 5 mps 746 mmHg 78%
    12:00 +7°C° 0 mm 5 mps 746 mmHg 76%
    13:00 +7°C° 0 mm 4 mps 746 mmHg 77%
    14:00 +7°C° 0 mm 4 mps 746 mmHg 77%
    15:00 +8°C° 0 mm 3 mps 746 mmHg 78%
    16:00 +7°C° 0 mm 3 mps 746 mmHg 81%
    17:00 +7°C° 0 mm 3 mps 746 mmHg 83%
    18:00 +5°C° 0 mm 3 mps 746 mmHg 86%
    19:00 +5°C° 0 mm 3 mps 746 mmHg 87%
    20:00 +5°C° 0 mm 3 mps 747 mmHg 88%
    21:00 +4°C° 0 mm 3 mps 747 mmHg 90%
    22:00 +4°C° 0 mm 3 mps 747 mmHg 91%
    23:00 +5°C° 0 mm 2 mps 747 mmHg 91%

    26 January, Friday

    Time Temperature Precipitation Wind Pressure Humidity
    00:00 +4°C° 0 mm 2 mps 747 mmHg 92%
    01:00 +4°C° 0 mm 2 mps 747 mmHg 92%
    02:00 +4°C° 0 mm 2 mps 747 mmHg 92%
    03:00 +4°C° 0 mm 2 mps 747 mmHg 93%
    04:00 +4°C° 0 mm 2 mps 747 mmHg 93%
    05:00 +3°C° 0 mm 2 mps 748 mmHg 93%
    06:00 +3°C° 0 mm 2 mps 748 mmHg 93%
    07:00 +3°C° 0 mm 2 mps 748 mmHg 91%
    08:00 +4°C° 0 mm 2 mps 749 mmHg 90%
    09:00 +4°C° 0 mm 2 mps 749 mmHg 89%
    10:00 +5°C° 0 mm 2 mps 749 mmHg 85%
    11:00 +6°C° 0 mm 2 mps 750 mmHg 81%
    12:00 +7°C° 0 mm 2 mps 750 mmHg 78%
    13:00 +7°C° 0 mm 2 mps 750 mmHg 79%
    14:00 +7°C° 0 mm 2 mps 751 mmHg 80%
    15:00 +8°C° 0 mm 1 mps 751 mmHg 81%
    16:00 +6°C° 0 mm 2 mps 752 mmHg 85%
    17:00 +5°C° 0 mm 2 mps 752 mmHg 89%
    18:00 +4°C° 0 mm 2 mps 753 mmHg 92%
    19:00 +4°C° 0 mm 2 mps 753 mmHg 93%
    20:00 +3°C° 0 mm 2 mps 754 mmHg 94%
    21:00 +3°C° 0 mm 2 mps 754 mmHg 95%
    22:00 +3°C° 0 mm 2 mps 755 mmHg 95%
    23:00 +3°C° 0 mm 2 mps 755 mmHg 96%
    Show more